User: anonymous   Login
Location: Maiden
(35.5760°N, 81.2120°W)
Time: 15:12:35
(UTC-04:00)
Language:

Cosmos 2151 - Orbit

View from above orbital plane
View from above orbital plane
View from above satellite
View from above satellite

Ground track
Ground track

The orbit data is extracted from the following two-line orbital elements,

1 21422U 91042A   15240.17974016  .00000521  00000-0  49776-4 0  9999
2 21422 082.5033 153.3599 0013953 340.9709 019.0987 14.91286498310260
Epoch (UTC): 28 August 2015 04:18:49
Eccentricity: 0.0013953
inclination: 82.5033°
perigee height: 584 km
apogee height: 603 km
right ascension of ascending node: 153.3599°
argument of perigee: 340.9709°
revolutions per day: 14.91286498
mean anomaly at epoch: 19.0987°
orbit number at epoch: 31026

The dashed part of the orbit path shows where the satellite is in the earth's shadow,  

DLR